Weather History for Deming, NM

Change the Weather History Date:

Wednesday, October 10, 2012

  Actual Average Record
Temperature  
Mean Temperature 65 °F 64 °F  
Max Temperature 86 °F 80 °F 95 °F (1950)
Min Temperature 46 °F 48 °F 30 °F (1949)
Growing Degree Days 15 (Base 50)    
Moisture  
Dew Point 30 °F    
Average Humidity 29    
Maximum Humidity 56    
Minimum Humidity 13    
Precipitation  
Precipitation 0.00 in 0.04 in 0.26 in (1986)
Month to date precipitation 0.39  
Year to date precipitation 9.28  
Sea Level Pressure  
Sea Level Pressure 29.91 in    
Wind  
Wind Speed 3 mph (WSW)    
Max Wind Speed 8 mph    
Max Gust Speed -    
Visibility 10 miles    
Events      
T = Trace of Precipitation, MM = Missing Value Source: NWS Daily Summary

Daily Weather History Graph

Daily Weather History Graph

Search for Another Location

Airport:

Trip Planner

Search our weather history database for the weather conditions in past years. The results will help you decide how hot, cold, wet, or windy it might be!

Date:

Astronomy

Oct. 10, 2012 Rise Set
Actual Time 7:11 AM MDT 6:43 PM MDT
Civil Twilight 6:46 AM MDT 7:08 PM MDT
Nautical Twilight 6:18 AM MDT 7:36 PM MDT
Astronomical Twilight 5:49 AM MDT 8:04 PM MDT
Moon 2:07 AM MDT (10/10) 3:33 PM MDT (10/10)
Length of Visible Light 12h 21m
Length of Day
11h 32m
Waning Crescent, 26% of the Moon is Illuminated
Oct 10
Waning Crescent
Oct 15
New
Oct 21
First Quarter
Oct 29
Full
Nov 6
Last Quarter

Hourly Weather History & Observations

Time (MDT) Temp. Windchill Dew Point Humidity Pressure Visibility Wind Dir Wind Speed Gust Speed Precip Events Conditions
12:53 AM 55.0 °F - 26.1 °F 33% 29.91 in 10.0 mi WNW 3.5 mph - N/A   Clear
1:53 AM 52.0 °F - 25.0 °F 35% 29.92 in 10.0 mi Calm Calm - N/A   Clear
2:53 AM 50.0 °F - 25.0 °F 38% 29.93 in 10.0 mi Calm Calm - N/A   Clear
3:53 AM 48.9 °F - 26.1 °F 41% 29.92 in 10.0 mi Calm Calm - N/A   Clear
4:53 AM 48.9 °F - 27.0 °F 43% 29.93 in 10.0 mi SW 4.6 mph - N/A   Clear
5:53 AM 46.0 °F 43.9 °F 30.9 °F 56% 29.95 in 10.0 mi West 4.6 mph - N/A   Clear
6:53 AM 46.0 °F 42.5 °F 28.0 °F 50% 29.97 in 10.0 mi West 6.9 mph - N/A   Clear
7:53 AM 48.9 °F - 28.0 °F 44% 29.99 in 10.0 mi WNW 4.6 mph - N/A   Clear
8:53 AM 57.0 °F - 28.9 °F 34% 30.00 in 10.0 mi WNW 3.5 mph - N/A   Clear
9:53 AM 66.9 °F - 30.0 °F 25% 29.99 in 10.0 mi Calm Calm - N/A   Clear
10:53 AM 72.0 °F - 30.9 °F 22% 29.98 in 10.0 mi Calm Calm - N/A   Clear
11:53 AM 77.0 °F - 33.1 °F 20% 29.96 in 10.0 mi Calm Calm - N/A   Clear
12:53 PM 80.1 °F - 32.0 °F 17% 29.92 in 10.0 mi Variable 3.5 mph - N/A   Clear
1:53 PM 82.9 °F - 28.0 °F 14% 29.88 in 10.0 mi Variable 6.9 mph - N/A   Clear
2:53 PM 84.9 °F - 28.9 °F 13% 29.85 in 10.0 mi ESE 8.1 mph - N/A   Clear
3:53 PM 84.9 °F - 28.9 °F 13% 29.84 in 10.0 mi Variable 6.9 mph - N/A   Clear
4:53 PM 82.9 °F - 30.9 °F 15% 29.83 in 10.0 mi SSW 6.9 mph - N/A   Clear
5:53 PM 82.9 °F - 32.0 °F 16% 29.83 in 10.0 mi SSW 8.1 mph - N/A   Clear
6:53 PM 75.9 °F - 33.1 °F 21% 29.86 in 10.0 mi South 3.5 mph - N/A   Clear
7:53 PM 69.1 °F - 32.0 °F 25% 29.88 in 10.0 mi SSE 3.5 mph - N/A   Clear
8:53 PM 68.0 °F - 32.0 °F 26% 29.87 in 10.0 mi Calm Calm - N/A   Clear
9:53 PM 64.9 °F - 32.0 °F 29% 29.86 in 10.0 mi Calm Calm - N/A   Clear
10:53 PM 64.0 °F - 32.0 °F 30% 29.87 in 10.0 mi North 5.8 mph - N/A   Clear
11:53 PM 60.1 °F - 30.9 °F 33% 29.87 in 10.0 mi Calm Calm - N/A   Clear